Location: Unspecified
(0.0000°N, 0.0000°E)
Time: 10:11:05
(UTC+01:00)

SJ-6B - Visible Passes

Search period start: 24 November 2017 00:00
Search period end: 04 December 2017 00:00
Orbit: 512 x 582 km, 97.7° (Epoch: 23 November)

Date Brightness Start Highest point End Pass type
(mag) Time Alt. Az. Time Alt. Az. Time Alt. Az.
24 Nov 6.0 21:19:43 10° SW 21:19:54 11° SW 21:19:54 11° SW visible
25 Nov 5.8 21:14:16 10° SSW 21:14:50 13° SW 21:14:50 13° SW visible
26 Nov 5.5 21:08:53 10° SSW 21:09:46 15° SSW 21:09:46 15° SSW visible
27 Nov 5.3 21:03:33 10° SSW 21:04:42 17° SSW 21:04:42 17° SSW visible
28 Nov 5.1 20:58:16 10° S 20:59:38 20° SSW 20:59:38 20° SSW visible
29 Nov 4.9 20:53:00 10° S 20:54:34 22° SSW 20:54:34 22° SSW visible
30 Nov 4.7 20:47:47 10° S 20:49:29 24° S 20:49:29 24° S visible
01 Dec 4.5 20:42:35 10° S 20:44:25 27° S 20:44:25 27° S visible
02 Dec 4.3 20:37:26 10° S 20:39:21 28° S 20:39:21 28° S visible
03 Dec 4.2 20:32:18 10° SSE 20:34:17 29° SSE 20:34:17 29° SSE visible
